Regional Weather Roundup
Issued by NWS

Home | Current Version | Previous Version | Text Only | Print | Product List | Glossary Off
Versions: 1 2 3 4 5 6 7 8 9 10 11 12 13 14 15 16 17 18 19 20 21 22 23 24 25 26 27 28 29 30 31 32 33 34 35 36 37 38 39 40 41 42 43 44 45 46 47 48 49 50

000
ASUS43 KIND 220759
RWRIN

WEATHER ROUNDUP FOR INDIANA
NATIONAL WEATHER SERVICE INDIANAPOLIS IN
400 AM EDT MON SEP 22 2014

NOTE: "FAIR" INDICATES FEW OR NO CLOUDS BELOW 12,000 FEET WITH NO
SIGNIFICANT WEATHER AND/OR OBSTRUCTIONS TO VISIBILITY.

* - STATION DOES NOT REPORT WEATHER SUCH AS PRECIPITATION OR FOG.

+ - STATION NOT QUALITY CONTROLLED BY THE NATIONAL WEATHER SERVICE.
    USE DATA WITH CAUTION...ESPECIALLY DEWPOINT AND RELATIVE
    HUMIDITY OBSERVATIONS.

INZ001>003-010>013-019-020-220900-
NORTHWEST INDIANA

CITY           SKY/WX    TMP DP  RH WIND       PRES   REMARKS
VALPARAISO     MOCLDY    51  43  74 N5        30.15S

$$

LMZ046-743>745-220900-
SOUTHERN LAKE MICHIGAN

STATION/POSITION TIME  TEMP WIND        PRES
                       AIR  DIR/SP/G
                 (UTC) (F)  (DEG/KT/KT) (MB)
MICHIGAN CITY    0700   55  350/ 22/ 26   N/A

$$

INZ004-005-014>016-021>024-220900-
NORTH CENTRAL INDIANA

CITY           SKY/WX    TMP DP  RH WIND       PRES   REMARKS
GOSHEN         CLOUDY   N/A N/A N/A N8        30.13S
SOUTH BEND     CLOUDY    49  41  74 N9        30.15R

$$

INZ006>009-017-018-025>027-220900-
NORTHEAST INDIANA

CITY           SKY/WX    TMP DP  RH WIND       PRES   REMARKS
ANGOLA *+      CLOUDY    45  28  53 N6        30.11R
FORT WAYNE     PTCLDY    44  39  82 N10       30.12R

$$

INZ028-029-035-036-043>045-051>053-220900-
WEST CENTRAL INDIANA

CITY           SKY/WX    TMP DP  RH WIND       PRES   REMARKS
GREENCASTLE +  CLEAR     50  46  87 CALM      30.14S
LAFAYETTE      PTCLDY    48  47  96 W3        30.14S
TERRE HAUTE    CLEAR     51  48  89 N5        30.14S

$$

INZ030>032-037>040-046>048-054>057-064-065-220900-
CENTRAL INDIANA

CITY           SKY/WX    TMP DP  RH WIND       PRES   REMARKS
INDIANAPOLIS   PTCLDY    52  47  83 N5        30.13R
-EAGLE CREEK   MOCLDY    53  48  83 N6        30.12S
KOKOMO *+      CLEAR     48  43  81 N3        30.13S
MT COMFORT *+  CLEAR     50  45  81 N8        30.12S
SHELBYVILLE    CLEAR     49  45  86 N7        30.11S

$$

INZ033-034-041-042-049-050-058-059-220900-
EAST CENTRAL INDIANA

CITY           SKY/WX    TMP DP  RH WIND       PRES   REMARKS
MUNCIE         CLEAR     46  42  86 N8        30.11R

$$

INZ060-061-067>069-081>083-085>088-220900-
SOUTHWEST INDIANA

CITY           SKY/WX    TMP DP  RH WIND       PRES   REMARKS
EVANSVILLE     CLEAR     57  50  77 N7        30.13R

$$

INZ062-063-066-070>080-084-089>092-220900-
SOUTH CENTRAL AND SOUTHEAST INDIANA

CITY           SKY/WX    TMP DP  RH WIND       PRES   REMARKS
BLOOMINGTON    CLEAR     52  49  89 CALM      30.12S
SEYMOUR +      CLEAR     52  48  87 CALM      30.11R

$$



USA.gov is the U.S. government's official web portal to all federal, state and local government web resources and services.